Location: Gammelsbach
(49.5261°N, 8.9630°E)
Time: 19:52:33
(UTC+00:00)

SL-4 R/B - Pass Details

Date: 17 June 2025
Orbit: 393 x 546 km, 51.6° (Epoch: 16 July)

Event Time Altitude Azimuth Distance (km) Brightness Sun altitude
Rises 20:46:42 0° 222° (SW) 2,703 5.4 -9.0°
Reaches altitude 10° 20:49:02 10° 215° (SW) 1,812 4.5 -9.2°
Maximum altitude 20:52:53 38° 147° (SSE) 839 2.5 -9.6°
Drops below altitude 10° 20:56:41 10° 78° (ENE) 1,789 4.4 -9.9°
Sets 20:58:58 0° 71° (ENE) 2,663 5.4 -10.2°
